This demonstration page uses our WeatherBlox Daily Observations layout. Learn more.

38.89511, -77.03637

Hourly Observations for January 1, 2015

Temp ( °F °C ) Dew Point ( °F °C ) Humidity (%) Winds ( mph kmh ) Pressure ( in mb ) Visibility ( mi km ) Precip ( " mm )
12:41 am 00:41 Mostly Clear 28 -2 18 -8 64 64 SW 5 7 30.27 1025 10 16.0934 0 0
12:52 am 00:52 Clear 30 -1.1 18 -7.8 61 61 SSW 5 7 30.26 1025 10 16.0934 0 0
1:52 am 01:52 Clear 27 -2.8 15 -9.4 61 61 SSW 7 11 30.25 1024 10 16.0934 0 0
2:52 am 02:52 Clear 29 -1.7 13 -10.6 51 51 SSW 5 7 30.24 1024 10 16.0934 0 0
3:52 am 03:52 Clear 29 -1.7 13 -10.6 51 51 SSW 5 7 30.22 1024 10 16.0934 0 0
4:52 am 04:52 Clear 29 -1.7 12 -11.1 49 49 SSW 3 6 30.22 1023 10 16.0934 0 0
5:52 am 05:52 Clear 28 -2.2 12 -11.1 51 51 SSW 3 6 30.23 1024 10 16.0934 0 0
6:52 am 06:52 Mostly Clear 29 -1.7 12 -11.1 49 49 SW 5 7 30.22 1023 10 16.0934 0 0
7:52 am 07:52 Partly Cloudy 29 -1.7 14 -10 54 54 SW 5 7 30.23 1024 10 16.0934 0 0
8:52 am 08:52 Partly Cloudy 33 0.6 17 -8.3 52 52 SSW 9 15 30.26 1025 10 16.0934 0 0
9:52 am 09:52 Partly Cloudy 36 2.2 16 -8.9 44 44 SSW 8 13 30.26 1025 10 16.0934 0 0
10:52 am 10:52 Partly Cloudy 40 4.4 16 -8.9 38 38 S 8 13 30.23 1024 10 16.0934 0 0
11:52 am 11:52 Mostly Cloudy 43 6.1 16 -8.9 34 34 SSW 13 20 30.18 1022 10 16.0934 0 0
12:52 pm 12:52 Mostly Cloudy 45 7.2 14 -10 29 29 SW 14 22 30.12 1020 10 16.0934 0 0
1:52 pm 13:52 Mostly Cloudy 46 7.8 14 -10 27 27 WSW 15 24 30.11 1020 10 16.0934 0 0
2:52 pm 14:52 Mostly Cloudy 45 7.2 15 -9.4 30 30 SW 13 20 30.09 1019 10 16.0934 0 0
3:52 pm 15:52 Mostly Cloudy 45 7.2 15 -9.4 30 30 SSW 12 19 30.09 1019 10 16.0934 0 0
4:52 pm 16:52 Mostly Cloudy 43 6.1 16 -8.9 34 34 SSW 10 17 30.09 1019 10 16.0934 0 0
5:52 pm 17:52 Partly Cloudy 42 5.6 18 -7.8 38 38 S 10 17 30.07 1018 10 16.0934 0 0
6:52 pm 18:52 Mostly Clear 41 5 20 -6.7 43 43 SSW 10 17 30.08 1019 10 16.0934 0 0
7:52 pm 19:52 Mostly Clear 40 4.4 20 -6.7 45 45 SSW 10 17 30.07 1018 10 16.0934 0 0
8:52 pm 20:52 Partly Cloudy 38 3.3 21 -6.1 51 51 SSW 9 15 30.08 1019 10 16.0934 0 0
9:52 pm 21:52 Mostly Cloudy 40 4.4 22 -5.6 49 49 SSW 9 15 30.09 1019 10 16.0934 0 0
10:52 pm 22:52 Clear 40 4.4 22 -5.6 49 49 SW 6 9 30.09 1019 10 16.0934 0 0
11:52 pm 23:52 Partly Cloudy 41 5 23 -5 49 49 SSW 5 7 30.1 1019 10 16.0934 0 0

Powered by AerisWeather